When you browse on this site, cookies collect data to enhance your experience and personalize the content and advertising you see.
Visit our Privacy Policy to learn more. By continuing to use the site, you agree to this use of cookies and data.
  • In Latvia
  • List of Countries
  • For 7 days
  • Water Temperature
  • Satellite Maps
  • Weather Map
  • Weather Widgets
  • user-avatar
    Login

    Hourly Weather Shaki

    Today, 18 July, Thursday

    Time Temperature Precipitation Wind Pressure Humidity
    00:00 +25°C° 0 mm 3 mps 730 mmHg 63%
    01:00 +25°C° 0 mm 2 mps 730 mmHg 64%
    02:00 +25°C° 0 mm 2 mps 730 mmHg 64%
    03:00 +24°C° 0 mm 1 mps 730 mmHg 65%
    04:00 +25°C° 0 mm 1 mps 730 mmHg 64%
    05:00 +26°C° 0 mm 1 mps 730 mmHg 63%
    06:00 +26°C° 0 mm 1 mps 730 mmHg 63%
    07:00 +28°C° 0 mm 1 mps 730 mmHg 57%
    08:00 +29°C° 0 mm 2 mps 730 mmHg 52%
    09:00 +30°C° 0 mm 3 mps 730 mmHg 47%
    10:00 +31°C° 0 mm 3 mps 730 mmHg 45%
    11:00 +33°C° 0 mm 3 mps 730 mmHg 43%
    12:00 +34°C° 0 mm 3 mps 729 mmHg 41%
    13:00 +35°C° 0 mm 2 mps 729 mmHg 39%
    14:00 +36°C° 0 mm 2 mps 729 mmHg 38%
    15:00 +37°C° 0 mm 2 mps 729 mmHg 37%
    16:00 +36°C° 0 mm 1 mps 729 mmHg 38%
    17:00 +35°C° 0 mm 1 mps 729 mmHg 39%
    18:00 +33°C° 0 mm 0 mps 729 mmHg 39%
    19:00 +34°C° 0 mm 1 mps 729 mmHg 43%
    20:00 +32°C° 0 mm 1 mps 730 mmHg 46%
    21:00 +30°C° 0 mm 2 mps 730 mmHg 49%
    22:00 +29°C° 0 mm 2 mps 730 mmHg 49%
    23:00 +28°C° 0 mm 2 mps 730 mmHg 50%

    Tomorrow, 19 July, Friday

    Time Temperature Precipitation Wind Pressure Humidity
    00:00 +27°C° 0 mm 2 mps 730 mmHg 51%
    01:00 +27°C° 0 mm 2 mps 730 mmHg 52%
    02:00 +26°C° 0 mm 1 mps 730 mmHg 53%
    03:00 +26°C° 0 mm 1 mps 730 mmHg 54%
    04:00 +26°C° 0 mm 1 mps 731 mmHg 55%
    05:00 +25°C° 0 mm 0 mps 731 mmHg 55%
    06:00 +26°C° 0 mm 0 mps 731 mmHg 55%
    07:00 +29°C° 0 mm 1 mps 731 mmHg 51%
    08:00 +30°C° 0 mm 1 mps 731 mmHg 47%
    09:00 +32°C° 0 mm 2 mps 731 mmHg 44%
    10:00 +34°C° 0 mm 2 mps 731 mmHg 41%
    11:00 +35°C° 0 mm 2 mps 731 mmHg 39%
    12:00 +36°C° 0 mm 2 mps 731 mmHg 37%
    13:00 +37°C° 0 mm 2 mps 731 mmHg 36%
    14:00 +37°C° 0 mm 3 mps 731 mmHg 35%
    15:00 +38°C° 0 mm 3 mps 731 mmHg 34%
    16:00 +38°C° 0 mm 2 mps 731 mmHg 35%
    17:00 +37°C° 0 mm 2 mps 732 mmHg 36%
    18:00 +37°C° 0 mm 2 mps 732 mmHg 38%
    19:00 +35°C° 0 mm 2 mps 732 mmHg 41%
    20:00 +33°C° 0 mm 3 mps 733 mmHg 44%
    21:00 +31°C° 0 mm 3 mps 733 mmHg 47%
    22:00 +30°C° 0 mm 3 mps 734 mmHg 49%
    23:00 +29°C° 0 mm 2 mps 734 mmHg 51%

    Day after tomorrow, 20 July, Saturday

    Time Temperature Precipitation Wind Pressure Humidity
    00:00 +28°C° 0 mm 2 mps 734 mmHg 53%
    01:00 +27°C° 0 mm 2 mps 734 mmHg 54%
    02:00 +27°C° 0 mm 1 mps 734 mmHg 55%
    03:00 +27°C° 0 mm 1 mps 734 mmHg 55%
    04:00 +27°C° 0 mm 1 mps 734 mmHg 56%
    05:00 +27°C° 0 mm 2 mps 735 mmHg 57%
    06:00 +28°C° 0 mm 2 mps 735 mmHg 57%
    07:00 +29°C° 0 mm 2 mps 735 mmHg 54%
    08:00 +31°C° 0 mm 3 mps 735 mmHg 50%
    09:00 +33°C° 0 mm 3 mps 736 mmHg 46%
    10:00 +35°C° 0 mm 3 mps 735 mmHg 43%
    11:00 +36°C° 0 mm 3 mps 735 mmHg 40%
    12:00 +37°C° 0 mm 3 mps 735 mmHg 37%
    13:00 +38°C° 0 mm 4 mps 735 mmHg 34%
    14:00 +40°C° 0 mm 4 mps 735 mmHg 32%
    15:00 +40°C° 0 mm 4 mps 735 mmHg 30%
    16:00 +40°C° 0 mm 4 mps 735 mmHg 31%
    17:00 +39°C° 0 mm 5 mps 736 mmHg 32%
    18:00 +39°C° 0 mm 5 mps 736 mmHg 34%
    19:00 +35°C° 0 mm 5 mps 736 mmHg 37%
    20:00 +33°C° 0 mm 4 mps 736 mmHg 40%
    21:00 +30°C° 0 mm 4 mps 737 mmHg 44%
    22:00 +29°C° 0 mm 4 mps 737 mmHg 45%
    23:00 +28°C° 0 mm 3 mps 737 mmHg 47%

    21 July, Sunday

    Time Temperature Precipitation Wind Pressure Humidity
    00:00 +28°C° 0 mm 3 mps 737 mmHg 49%
    01:00 +27°C° 0 mm 2 mps 737 mmHg 50%
    02:00 +27°C° 0 mm 2 mps 737 mmHg 50%
    03:00 +27°C° 0 mm 2 mps 736 mmHg 51%
    04:00 +27°C° 0 mm 2 mps 736 mmHg 51%
    05:00 +28°C° 0 mm 2 mps 737 mmHg 51%
    06:00 +28°C° 0 mm 2 mps 737 mmHg 51%
    07:00 +30°C° 0 mm 3 mps 737 mmHg 47%
    08:00 +31°C° 0 mm 3 mps 736 mmHg 44%
    09:00 +33°C° 0 mm 4 mps 736 mmHg 40%
    10:00 +35°C° 0 mm 4 mps 736 mmHg 37%
    11:00 +36°C° 0 mm 5 mps 736 mmHg 34%
    12:00 +37°C° 0 mm 5 mps 735 mmHg 32%
    13:00 +39°C° 0 mm 5 mps 735 mmHg 30%
    14:00 +40°C° 0 mm 4 mps 734 mmHg 29%
    15:00 +40°C° 0 mm 4 mps 734 mmHg 28%
    16:00 +40°C° 0 mm 4 mps 734 mmHg 30%
    17:00 +38°C° 0 mm 3 mps 734 mmHg 31%
    18:00 +38°C° 0 mm 2 mps 734 mmHg 32%
    19:00 +36°C° 0 mm 3 mps 734 mmHg 36%
    20:00 +33°C° 0 mm 3 mps 734 mmHg 39%
    21:00 +30°C° 0 mm 3 mps 734 mmHg 42%
    22:00 +30°C° 0 mm 3 mps 734 mmHg 43%
    23:00 +29°C° 0 mm 2 mps 734 mmHg 44%

    22 July, Monday

    Time Temperature Precipitation Wind Pressure Humidity
    00:00 +29°C° 0 mm 2 mps 734 mmHg 45%
    01:00 +29°C° 0 mm 2 mps 734 mmHg 45%
    02:00 +28°C° 0 mm 1 mps 733 mmHg 46%
    03:00 +26°C° 0 mm 0 mps 733 mmHg 47%
    04:00 +26°C° 0 mm 0 mps 733 mmHg 47%
    05:00 +27°C° 0 mm 0 mps 733 mmHg 47%
    06:00 +27°C° 0 mm 0 mps 733 mmHg 48%
    07:00 +31°C° 0 mm 1 mps 733 mmHg 44%
    08:00 +32°C° 0 mm 2 mps 733 mmHg 41%
    09:00 +34°C° 0 mm 2 mps 733 mmHg 38%
    10:00 +36°C° 0 mm 2 mps 733 mmHg 36%
    11:00 +37°C° 0 mm 3 mps 733 mmHg 34%
    12:00 +38°C° 0 mm 3 mps 732 mmHg 32%
    13:00 +38°C° 0 mm 4 mps 732 mmHg 30%
    14:00 +40°C° 0 mm 4 mps 732 mmHg 29%
    15:00 +41°C° 0 mm 4 mps 731 mmHg 28%
    16:00 +40°C° 0 mm 4 mps 731 mmHg 29%
    17:00 +40°C° 0 mm 4 mps 731 mmHg 30%
    18:00 +38°C° 0 mm 4 mps 731 mmHg 32%
    19:00 +36°C° 0 mm 4 mps 732 mmHg 36%
    20:00 +34°C° 0 mm 4 mps 732 mmHg 40%
    21:00 +32°C° 0 mm 4 mps 732 mmHg 44%
    22:00 +30°C° 0 mm 4 mps 732 mmHg 46%
    23:00 +29°C° 0 mm 3 mps 732 mmHg 48%

    23 July, Tuesday

    Time Temperature Precipitation Wind Pressure Humidity
    00:00 +29°C° 0 mm 2 mps 732 mmHg 50%
    01:00 +28°C° 0 mm 2 mps 732 mmHg 51%
    02:00 +28°C° 0 mm 2 mps 732 mmHg 53%
    03:00 +27°C° 0 mm 2 mps 732 mmHg 54%
    04:00 +28°C° 0 mm 2 mps 732 mmHg 53%
    05:00 +28°C° 0 mm 2 mps 732 mmHg 51%
    06:00 +29°C° 0 mm 2 mps 732 mmHg 50%
    07:00 +30°C° 0 mm 2 mps 732 mmHg 46%
    08:00 +33°C° 0 mm 3 mps 732 mmHg 42%
    09:00 +34°C° 0 mm 3 mps 732 mmHg 39%
    10:00 +35°C° 0 mm 3 mps 732 mmHg 37%
    11:00 +36°C° 0 mm 3 mps 732 mmHg 35%
    12:00 +37°C° 0 mm 3 mps 731 mmHg 33%
    13:00 +37°C° 0 mm 3 mps 731 mmHg 32%
    14:00 +38°C° 0 mm 3 mps 731 mmHg 31%
    15:00 +38°C° 0 mm 4 mps 731 mmHg 30%
    16:00 +38°C° 0 mm 4 mps 731 mmHg 31%
    17:00 +37°C° 0 mm 4 mps 731 mmHg 33%
    18:00 +37°C° 0 mm 4 mps 731 mmHg 34%
    19:00 +35°C° 0 mm 4 mps 731 mmHg 37%
    20:00 +33°C° 0 mm 3 mps 732 mmHg 41%
    21:00 +30°C° 0 mm 3 mps 732 mmHg 44%
    22:00 +29°C° 0 mm 3 mps 732 mmHg 46%
    23:00 +28°C° 0 mm 3 mps 732 mmHg 48%
    Show more